Date,TemperatureHighF,TemperatureAvgF,TemperatureLowF,DewpointHighF,DewpointAvgF,DewpointLowF,HumidityHigh,HumidityAvg,HumidityLow,PressureMaxIn,PressureMinIn,WindSpeedMaxMPH,WindSpeedAvgMPH,GustSpeedMaxMPH,PrecipitationSumIn
2013-1-1,51.2,48.3,45.2,49.2,43.3,31.0,97,84,53,30.19,29.96,5,0,7,0.64
2013-1-2,53.2,49.4,46.7,48.8,46.9,44.3,98,91,78,30.16,29.92,4,0,5,0.06
2013-1-3,47.1,43.3,32.6,45.3,41.5,29.5,97,93,84,30.33,30.11,5,0,8,0.00
2013-1-4,55.9,38.2,27.9,34.8,28.8,24.4,97,73,33,30.42,30.28,6,0,7,0.00
2013-1-5,47.4,38.0,25.8,36.5,27.4,22.3,88,67,43,30.45,30.28,4,0,6,0.03
2013-1-6,59.2,45.3,38.2,44.4,38.1,30.6,90,77,45,30.29,30.07,6,1,11,0.01
2013-1-7,55.7,41.5,29.7,34.2,30.5,27.0,92,67,40,30.46,30.24,6,1,8,0.00
2013-1-8,52.7,42.6,29.3,42.1,35.3,26.3,92,76,60,30.49,30.39,3,0,5,0.00
2013-1-9,65.0,56.1,48.5,56.0,49.7,41.3,91,79,70,30.48,30.39,5,0,6,0.00
2013-1-10,70.3,58.7,51.1,57.1,53.4,49.5,97,84,59,30.49,30.33,5,0,8,0.02
2013-1-11,56.9,53.3,52.1,55.7,52.5,51.3,98,97,95,30.33,30.17,5,0,5,0.51
2013-1-12,71.8,60.6,53.3,65.8,58.6,52.8,98,93,76,30.19,30.09,3,0,7,0.01
2013-1-13,67.6,61.3,56.5,63.3,59.8,55.7,98,95,86,30.15,30.05,4,0,6,0.01
2013-1-14,66.2,63.3,60.4,65.2,62.5,59.3,98,97,94,30.12,30.05,5,0,7,0.66
2013-1-15,62.6,55.8,47.3,62.0,55.2,46.8,98,98,98,30.12,30.02,5,1,7,0.88
2013-1-16,52.6,49.6,46.4,52.0,49.1,45.9,98,98,98,30.06,29.97,3,0,5,0.59
2013-1-17,53.5,49.3,37.5,53.0,48.6,36.8,98,98,95,30.23,29.73,6,1,15,2.75
2013-1-18,56.4,41.6,31.2,36.6,29.0,19.1,98,66,28,30.53,30.23,5,1,8,0.00
2013-1-19,56.3,40.5,28.3,33.6,29.5,26.5,94,68,34,30.53,30.24,4,0,7,0.00
2013-1-20,67.3,48.7,35.1,41.3,32.4,27.1,80,56,31,30.24,30.06,6,1,8,0.00
2013-1-21,61.4,44.9,29.3,35.2,28.3,18.1,92,56,31,30.11,29.99,16,2,17,0.00
2013-1-22,47.1,38.3,30.4,21.3,15.6,8.3,58,41,23,30.29,30.08,17,2,27,0.00
2013-1-23,53.9,38.8,25.0,31.5,22.2,12.3,70,52,40,30.40,30.15,9,1,15,0.00
2013-1-24,56.1,44.6,28.9,36.9,23.1,9.4,79,46,18,30.50,30.07,15,2,21,0.00
2013-1-25,31.5,27.9,25.2,28.6,18.6,8.7,92,69,44,30.53,30.18,4,0,6,0.00
2013-1-26,56.6,38.7,28.7,39.9,31.9,27.3,97,79,39,30.37,30.16,4,0,4,0.04
2013-1-27,48.3,39.0,29.7,34.8,31.6,27.7,93,75,56,30.59,30.37,8,0,9,0.00
2013-1-28,51.5,45.4,41.2,45.2,38.6,32.9,95,77,63,30.50,30.31,4,0,5,0.00
2013-1-29,70.3,56.8,42.8,60.7,52.8,41.2,97,87,69,30.31,30.01,4,1,6,0.00
2013-1-30,68.3,62.3,46.8,64.0,59.1,44.8,96,89,83,30.02,29.47,11,2,19,1.65
2013-1-31,50.6,42.1,35.3,44.8,28.0,20.8,93,59,33,30.12,29.62,15,3,21,0.02
2013-2-1,46.9,38.2,27.5,30.2,13.9,-0.5,71,41,15,30.40,30.03,16,3,22,0.00
2013-2-2,43.9,32.5,22.1,36.3,22.6,11.1,96,70,28,30.42,30.11,12,1,12,0.14
2013-2-3,53.7,42.0,33.0,38.9,31.3,25.0,96,69,34,30.11,29.95,15,3,21,0.00
2013-2-4,49.9,38.5,27.6,32.7,27.5,23.2,87,66,39,30.20,30.05,4,0,5,0.00
2013-2-5,63.7,47.4,34.5,46.4,38.6,30.1,95,73,43,30.06,29.95,15,1,15,0.00
2013-2-6,68.9,52.1,38.9,44.2,34.4,22.9,96,59,19,30.20,30.03,7,1,10,0.00
2013-2-7,49.5,45.8,43.1,42.8,36.1,27.6,96,72,46,30.23,29.98,5,1,6,0.47
2013-2-8,60.2,48.2,37.6,50.0,40.5,28.2,97,77,41,30.15,29.95,13,1,17,0.00
2013-2-9,63.4,44.9,30.1,32.4,28.4,24.5,88,58,25,30.35,30.13,4,1,6,0.00
2013-2-10,57.2,47.7,38.6,46.5,35.1,25.9,96,64,38,30.44,30.19,11,1,12,0.64
2013-2-11,56.3,51.7,47.0,55.4,50.7,45.9,98,96,94,30.18,30.01,9,0,9,0.20
2013-2-12,58.1,49.6,42.6,48.5,40.7,29.6,96,75,35,30.13,29.91,6,1,8,0.13
2013-2-13,53.4,45.5,41.0,47.5,42.2,34.5,97,89,70,29.92,29.72,8,1,12,0.05
2013-2-14,55.0,41.6,29.2,38.2,34.1,27.2,96,76,48,30.12,29.92,5,0,7,0.00
2013-2-15,63.1,46.7,30.5,40.6,34.7,29.0,96,67,36,30.15,29.97,8,1,13,0.00
2013-2-16,47.2,37.9,28.5,37.2,29.2,13.7,88,71,40,30.10,29.86,15,2,22,0.01
2013-2-17,46.2,34.2,23.4,18.5,11.5,5.8,67,41,20,30.32,30.10,17,3,19,0.00
2013-2-18,58.0,41.6,25.9,27.8,23.0,16.8,79,50,29,30.43,30.24,6,1,10,0.00
2013-2-19,55.2,43.5,36.7,45.9,32.6,17.5,96,69,34,30.24,29.94,13,2,24,0.24
2013-2-20,59.2,43.1,28.4,23.3,18.1,12.1,65,38,20,30.19,30.08,9,1,11,0.00
2013-2-21,60.2,45.0,31.2,40.8,23.1,15.7,86,45,23,30.26,30.09,6,1,7,0.04
2013-2-22,44.1,40.3,38.3,40.3,38.8,36.7,97,94,82,30.28,30.12,5,0,7,0.50
2013-2-23,46.2,42.4,39.3,44.8,41.4,38.5,97,96,93,30.14,29.88,4,0,4,0.43
2013-2-24,68.7,51.1,40.8,47.5,40.3,31.3,98,72,28,30.02,29.90,6,1,8,0.01
2013-2-25,49.7,43.7,36.3,35.4,30.9,27.1,93,61,50,30.16,30.00,5,1,9,0.04
2013-2-26,43.3,38.5,34.1,42.3,37.3,32.8,97,96,89,30.03,29.64,6,1,15,1.31
2013-2-27,58.6,47.2,38.8,40.9,36.9,34.1,89,69,48,29.87,29.74,12,2,17,0.00
2013-2-28,50.1,42.5,33.7,37.2,29.0,25.5,74,59,45,29.95,29.78,16,4,21,0.00
2013-3-1,53.5,40.1,27.1,33.2,29.4,24.5,92,67,43,30.00,29.89,8,0,11,0.00
2013-3-2,48.4,40.3,31.2,36.1,32.0,20.1,94,73,54,29.98,29.87,10,1,17,0.00
2013-3-3,49.8,35.3,23.2,25.6,20.6,16.6,89,57,30,30.08,29.94,10,1,12,0.00
2013-3-4,57.7,39.8,22.0,29.6,21.9,17.3,86,52,24,30.23,30.07,6,1,8,0.00
2013-3-5,53.6,44.7,37.6,47.1,38.0,27.1,97,77,56,30.12,29.69,9,1,18,0.48
2013-3-6,47.5,39.0,31.4,32.0,26.7,21.3,83,62,44,30.17,29.78,20,5,23,0.00
2013-3-7,60.5,41.6,26.4,34.5,29.5,24.0,92,65,35,30.30,30.17,6,1,7,0.00
2013-3-8,63.6,44.8,28.3,32.1,27.0,19.3,88,54,25,30.37,30.22,5,1,6,0.00
2013-3-9,64.3,48.8,32.5,34.0,29.1,22.0,75,48,29,30.39,30.25,5,1,10,0.00
2013-3-10,67.7,54.8,40.7,40.3,36.8,32.0,77,52,32,30.32,30.15,10,1,10,0.00
2013-3-11,65.9,55.9,49.9,55.5,49.1,39.5,97,79,59,30.18,29.82,9,1,12,0.95
2013-3-12,71.3,57.9,47.7,56.2,44.7,19.8,97,69,18,30.03,29.76,14,2,16,0.16
2013-3-13,57.5,46.5,36.9,33.2,27.1,20.4,75,48,29,30.21,30.02,16,4,21,0.00
2013-3-14,55.7,40.8,25.7,24.9,21.0,14.8,81,47,27,30.37,30.20,11,1,13,0.00
2013-3-15,73.7,52.9,31.0,43.9,31.8,13.5,74,46,31,30.24,29.95,9,1,15,0.00
2013-3-16,78.8,65.9,55.4,51.2,45.5,42.1,65,49,34,29.96,29.78,13,2,15,0.00
2013-3-17,76.0,64.2,53.0,53.2,47.8,42.7,71,56,38,30.01,29.87,8,1,12,0.00
2013-3-18,55.4,44.3,41.9,46.2,41.6,40.2,97,90,71,30.10,29.88,7,1,16,0.70
2013-3-19,65.5,44.8,41.6,43.4,39.4,20.0,97,87,19,30.08,29.90,11,1,24,0.00
2013-3-20,59.8,48.5,39.4,31.1,21.7,16.1,64,36,21,30.14,29.85,14,3,18,0.00
2013-3-21,49.9,40.8,31.8,31.7,13.5,3.9,65,34,20,29.99,29.85,18,5,21,0.00
2013-3-22,49.6,39.4,29.1,30.0,21.4,13.8,74,49,33,30.13,29.99,4,0,8,0.00
2013-3-23,52.7,45.8,40.7,48.2,41.0,29.8,95,84,59,30.08,29.89,5,0,6,0.15
2013-3-24,48.7,45.0,42.7,45.8,43.3,41.6,96,94,86,29.92,29.58,12,1,18,1.22
2013-3-25,45.9,40.3,33.5,42.8,28.4,23.8,97,63,46,30.00,29.60,22,4,26,0.01
2013-3-26,47.7,38.6,28.4,28.7,24.8,22.5,84,59,39,30.25,29.99,17,2,18,0.00
2013-3-27,59.6,41.6,24.5,29.0,24.3,13.0,90,55,20,30.35,30.19,11,1,14,0.00
2013-3-28,65.6,45.9,27.6,30.6,23.1,8.2,89,48,12,30.37,30.19,13,1,16,0.00
2013-3-29,59.4,47.2,30.6,42.2,29.8,18.7,78,53,30,30.40,30.25,11,1,12,0.00
2013-3-30,68.8,55.3,44.9,49.9,43.4,41.2,91,67,37,30.25,30.05,6,1,8,0.03
2013-3-31,70.1,59.1,51.5,58.8,54.2,49.9,97,85,57,30.07,29.85,10,1,12,0.83
2013-4-1,71.9,61.7,51.2,56.2,46.8,36.3,96,64,28,29.99,29.84,16,3,19,0.01
2013-4-2,72.3,58.2,44.2,38.9,31.7,17.2,71,40,18,30.16,29.99,11,2,12,0.00
2013-4-3,61.3,54.5,47.6,36.7,28.1,21.0,55,37,24,30.27,30.11,6,1,11,0.00
2013-4-4,52.2,44.1,38.7,38.8,35.2,28.1,96,74,45,30.25,30.00,5,0,7,0.51
2013-4-5,69.5,51.2,36.6,48.7,41.6,35.4,97,74,36,30.09,29.96,6,1,9,0.00
2013-4-6,73.0,57.5,37.7,44.7,37.2,34.2,90,51,26,30.24,30.08,7,1,10,0.00
2013-4-7,73.1,60.4,45.3,51.7,45.6,35.6,85,60,42,30.25,30.10,6,1,9,0.00
2013-4-8,79.5,65.7,52.3,59.7,53.6,47.5,91,67,42,30.18,30.06,6,1,9,0.00
2013-4-9,83.4,69.5,55.6,62.0,56.4,51.9,89,65,42,30.20,30.08,7,1,9,0.00
2013-4-10,85.6,71.7,59.1,63.5,58.8,55.3,90,66,42,30.11,29.93,5,1,10,0.00
2013-4-11,80.7,69.4,58.4,66.5,61.1,56.0,93,76,55,29.97,29.69,7,1,11,0.09
2013-4-12,77.5,67.9,59.1,66.4,53.3,36.8,96,65,29,29.83,29.65,10,2,16,0.63
2013-4-13,81.2,63.2,46.7,46.6,40.9,34.1,81,48,20,30.02,29.82,8,1,10,0.00
2013-4-14,69.3,60.1,49.9,54.9,46.5,38.7,94,62,41,30.09,29.95,4,0,7,0.03
2013-4-15,71.2,62.1,55.1,62.8,57.8,53.4,96,87,67,30.20,29.96,6,0,9,0.16
2013-4-16,80.9,67.8,59.3,64.5,59.8,56.9,93,78,51,30.30,30.17,7,0,7,0.00
2013-4-17,83.8,67.8,62.2,67.0,62.3,59.1,96,84,53,30.23,30.11,7,1,13,0.37
2013-4-18,81.8,68.8,60.5,64.3,61.7,59.4,97,80,51,30.14,29.94,9,1,9,0.00
2013-4-19,68.4,61.9,48.5,65.8,59.6,46.6,96,92,83,29.95,29.76,8,1,12,1.05
2013-4-20,67.7,52.5,37.8,46.5,37.3,29.5,95,60,31,30.27,29.94,7,1,8,0.00
2013-4-21,68.0,54.5,41.9,44.0,38.9,34.1,85,58,33,30.42,30.27,9,1,13,0.00
2013-4-22,67.2,54.4,44.1,44.5,41.2,38.0,86,63,40,30.42,30.21,9,1,11,0.00
2013-4-23,75.3,58.0,41.8,51.6,43.9,35.2,81,61,39,30.29,30.10,5,0,9,0.00
2013-4-24,74.8,61.3,50.3,61.3,54.9,47.8,95,81,55,30.15,30.03,7,1,12,0.01
2013-4-25,76.6,62.8,49.2,59.5,47.6,33.5,96,62,30,30.28,30.07,6,1,8,0.01
2013-4-26,75.7,59.8,42.2,48.7,39.9,33.2,81,50,29,30.44,30.28,6,1,9,0.00
2013-4-27,60.2,56.5,53.9,56.4,53.0,47.8,96,88,69,30.36,30.24,6,0,7,0.23
2013-4-28,55.0,53.5,51.3,54.2,52.6,50.2,97,96,95,30.27,30.06,9,0,9,2.17
2013-4-29,75.4,62.5,53.6,62.9,57.5,52.8,97,85,58,30.09,29.92,9,0,9,0.05
2013-4-30,76.8,64.5,51.6,64.5,58.4,50.8,98,82,57,30.15,29.98,8,1,14,0.00
2013-5-1,70.4,62.2,54.9,59.1,56.6,53.2,95,82,65,30.25,30.15,6,0,10,0.00
2013-5-2,62.4,59.6,57.2,58.7,56.9,55.4,95,91,87,30.27,30.21,4,0,6,0.01
2013-5-3,64.7,59.0,56.3,58.5,55.9,53.7,96,90,75,30.21,30.06,5,1,13,0.06
2013-5-4,57.9,54.1,51.8,54.9,50.4,45.3,96,88,71,30.07,29.93,7,1,9,0.97
2013-5-5,55.9,52.8,49.9,54.8,51.7,48.8,97,96,95,29.95,29.81,5,1,8,2.00
2013-5-6,65.1,56.1,48.2,54.2,50.8,46.4,97,84,59,29.93,29.81,7,1,11,0.01
2013-5-7,74.0,57.2,44.4,55.6,49.8,43.3,97,79,46,29.97,29.88,7,1,9,0.00
2013-5-8,74.9,61.4,48.3,62.1,54.8,47.2,97,81,52,30.03,29.94,10,1,13,0.00
2013-5-9,83.5,67.6,52.7,62.5,57.7,50.9,96,73,44,30.11,30.01,6,1,11,0.00
2013-5-10,81.8,68.6,54.9,66.0,60.9,53.8,97,78,53,30.08,29.94,6,0,10,0.00
2013-5-11,77.9,68.7,61.2,66.8,62.3,57.8,94,81,61,29.97,29.82,14,1,23,0.06
2013-5-12,74.6,63.2,52.1,59.6,46.4,26.2,96,62,17,30.06,29.86,15,3,20,0.01
2013-5-13,74.2,57.2,40.9,43.2,36.7,25.4,89,51,18,30.21,30.05,14,2,18,0.00
2013-5-14,76.6,60.8,40.4,54.4,45.0,35.4,91,59,36,30.29,30.10,8,1,11,0.00
2013-5-15,90.3,74.0,58.0,65.0,58.9,53.5,89,62,37,30.11,29.93,9,1,13,0.00
2013-5-16,84.5,72.5,61.9,65.1,60.5,55.3,83,67,46,30.04,29.95,6,1,10,0.00
2013-5-17,85.3,72.5,59.9,66.8,61.9,58.1,95,72,47,30.09,30.00,6,1,9,0.00
2013-5-18,78.3,69.0,63.5,68.7,64.4,60.6,96,86,63,30.12,30.03,6,0,7,0.80
2013-5-19,75.0,69.1,64.9,69.3,66.1,63.4,96,91,80,30.10,30.00,4,0,6,0.18
2013-5-20,85.4,71.1,62.5,71.2,66.5,61.3,97,87,59,30.12,30.00,5,1,7,0.00
2013-5-21,89.7,73.9,64.3,73.6,67.6,63.1,97,82,53,30.04,29.90,8,1,11,0.01
2013-5-22,86.7,73.4,63.8,73.7,67.4,62.4,96,83,63,30.00,29.83,6,1,11,3.02
2013-5-23,85.1,74.6,63.9,71.1,63.1,54.8,97,70,42,29.95,29.83,12,2,18,0.28
2013-5-24,78.3,67.7,55.6,56.9,48.7,35.6,86,54,23,30.21,29.90,10,2,14,0.00
2013-5-25,78.8,63.4,46.5,55.5,47.3,40.9,83,58,33,30.33,30.16,6,1,8,0.00
2013-5-26,78.7,64.5,54.1,57.5,51.7,45.0,88,65,43,30.31,30.17,4,0,7,0.00
2013-5-27,84.7,69.5,52.9,63.4,57.9,51.2,95,70,42,30.27,30.12,6,1,8,0.00
2013-5-28,85.9,73.0,63.1,66.9,63.3,60.3,91,73,48,30.22,30.12,5,0,8,0.00
2013-5-29,85.8,73.5,62.3,67.1,63.9,60.0,93,74,50,30.24,30.14,6,1,9,0.00
2013-5-30,85.5,73.1,62.1,67.4,64.2,60.1,94,75,48,30.27,30.15,6,0,8,0.00
2013-5-31,85.9,75.4,66.8,69.7,66.5,64.1,92,75,52,30.23,30.08,6,0,8,0.00
2013-6-1,87.1,75.4,66.3,69.8,67.4,64.5,94,78,52,30.13,29.99,5,0,7,0.26
2013-6-2,80.1,71.2,66.1,74.1,67.7,64.9,96,89,78,30.04,29.89,8,1,10,3.21
2013-6-3,84.0,72.5,65.3,73.5,68.8,64.2,97,89,66,29.94,29.84,6,1,9,0.08
2013-6-4,87.8,74.6,62.9,72.0,67.5,61.8,97,80,54,30.04,29.92,5,0,6,0.00
2013-6-5,85.8,72.5,64.9,75.4,68.2,63.4,95,87,65,30.07,29.92,8,1,13,2.11
2013-6-6,73.9,68.7,64.3,71.7,67.3,62.9,97,95,91,29.98,29.78,4,0,7,1.31
2013-6-7,84.5,71.6,66.4,75.2,68.8,65.3,97,91,71,29.83,29.67,10,1,15,0.62
2013-6-8,84.6,73.4,64.2,73.2,68.2,63.3,98,85,63,30.08,29.81,8,0,11,0.01
2013-6-9,83.7,72.6,67.3,74.5,69.5,65.8,96,90,69,30.13,30.02,8,1,14,0.66
2013-6-10,80.3,72.0,67.4,72.9,69.4,65.8,97,92,70,30.04,29.90,11,1,17,1.34
2013-6-11,90.8,77.9,68.5,73.7,70.1,66.9,97,79,49,30.01,29.91,9,1,12,0.58
2013-6-12,93.7,79.2,66.2,78.5,71.7,64.5,95,79,57,30.02,29.91,7,1,9,0.00
2013-6-13,92.7,79.2,69.2,74.8,71.5,68.0,97,79,52,29.92,29.69,19,2,23,0.31
2013-6-14,86.8,72.9,59.4,68.3,62.6,58.5,97,73,42,30.03,29.78,5,0,8,0.01
2013-6-15,86.3,73.3,58.9,66.0,61.4,56.9,94,69,44,30.14,30.02,4,1,8,0.00
2013-6-16,87.9,75.6,64.6,70.7,66.4,61.6,92,75,51,30.15,30.01,5,1,10,0.00
2013-6-17,84.7,75.2,69.5,75.5,70.8,68.0,96,86,71,30.05,29.92,9,1,13,0.33
2013-6-18,84.7,74.7,70.2,76.3,70.9,68.7,96,88,71,29.95,29.78,12,1,12,0.20
2013-6-19,83.8,74.4,66.2,71.9,67.6,64.0,95,80,61,30.10,29.89,6,0,6,0.04
2013-6-20,84.9,73.7,64.8,71.4,66.8,63.0,95,80,59,30.21,30.08,5,1,9,0.00
2013-6-21,86.7,74.5,63.6,70.5,65.4,61.2,95,75,45,30.26,30.15,5,0,6,0.00
2013-6-22,87.4,74.6,62.4,67.6,64.2,58.7,94,73,43,30.23,30.10,6,0,9,0.00
2013-6-23,89.8,75.4,64.2,73.6,69.0,62.4,95,82,54,30.20,30.09,6,0,9,0.25
2013-6-24,88.8,77.0,68.4,75.0,70.9,67.2,97,83,59,30.21,30.07,5,1,8,0.01
2013-6-25,89.3,78.2,69.3,75.7,71.0,67.8,96,80,56,30.14,30.00,8,1,11,0.00
2013-6-26,88.8,77.5,69.7,77.0,71.9,68.2,96,84,62,30.04,29.91,9,1,19,0.02
2013-6-27,90.1,79.7,71.4,77.8,73.8,69.9,97,83,63,29.96,29.72,8,1,12,0.60
2013-6-28,94.3,80.2,69.6,78.3,71.4,67.4,94,77,44,29.78,29.59,7,2,10,0.01
2013-6-29,90.2,77.8,67.7,74.8,69.6,66.2,96,78,49,29.69,29.60,6,1,12,0.00
2013-6-30,85.2,75.1,69.4,74.3,69.9,67.2,94,84,60,29.81,29.68,5,0,8,0.00
2013-7-1,83.4,73.5,68.4,73.7,69.3,66.8,96,87,67,29.94,29.79,8,1,13,0.63
2013-7-2,84.6,75.2,68.4,75.4,71.1,67.2,97,88,70,30.11,29.94,6,1,10,0.27
2013-7-3,82.7,72.3,66.6,75.1,69.9,65.3,96,92,74,30.20,30.09,8,1,12,1.09
2013-7-4,78.3,70.1,66.3,76.1,68.8,65.1,97,96,87,30.21,30.12,7,0,10,3.19
2013-7-5,86.3,71.3,69.0,74.7,69.5,68.1,97,95,64,30.24,30.15,3,0,20,0.99
2013-7-6,86.1,75.0,69.1,75.4,71.7,67.9,97,90,65,30.21,30.08,9,1,15,0.51
2013-7-7,84.8,75.3,69.4,76.4,72.1,68.2,97,90,74,30.16,30.07,6,1,9,1.82
2013-7-8,89.5,76.7,71.2,77.7,72.6,70.0,97,88,64,30.18,30.08,8,1,10,0.02
2013-7-9,89.9,77.2,69.7,77.8,72.3,66.9,97,86,64,30.19,30.03,12,1,16,0.10
2013-7-10,87.9,75.7,70.5,78.0,71.8,69.2,96,88,68,30.12,29.94,6,1,11,0.00
2013-7-11,81.2,75.7,72.7,74.9,73.0,70.9,95,91,80,29.96,29.85,4,0,6,0.00
2013-7-12,88.5,73.7,66.1,76.4,69.9,64.6,97,89,62,29.97,29.85,6,1,10,0.60
2013-7-13,79.8,71.7,65.0,74.3,69.1,63.5,96,92,81,30.09,29.97,4,0,7,0.36
2013-7-14,80.9,74.1,70.1,75.5,71.7,68.9,96,92,80,30.25,30.08,9,1,18,0.79
2013-7-15,87.2,75.7,69.3,77.4,71.8,68.2,97,89,64,30.31,30.22,6,0,7,0.05
2013-7-16,91.8,79.5,69.3,77.8,73.0,68.1,97,82,56,30.31,30.20,4,0,7,0.01
2013-7-17,93.1,78.4,68.7,78.8,72.6,65.9,96,84,58,30.24,30.10,10,1,12,0.91
2013-7-18,89.4,75.1,68.2,76.3,71.3,67.0,97,89,62,30.19,30.05,5,0,7,0.01
2013-7-19,91.5,80.0,71.0,78.3,73.7,69.8,97,82,57,30.11,29.96,6,0,9,0.00
2013-7-20,88.7,77.4,71.8,78.3,73.2,69.7,95,87,68,30.03,29.92,9,0,13,0.00
2013-7-21,90.8,75.8,70.3,78.6,72.1,68.5,97,89,60,30.00,29.89,10,1,20,3.48
2013-7-22,87.5,76.7,70.0,76.5,72.2,69.0,98,87,64,30.00,29.84,8,1,10,0.03
2013-7-23,89.5,77.4,68.8,75.9,71.6,67.3,96,83,60,29.89,29.77,10,1,13,0.01
2013-7-24,89.8,76.9,69.4,76.7,71.3,67.2,97,84,59,29.83,29.76,5,1,8,0.00
2013-7-25,87.7,75.1,66.1,74.9,69.4,64.8,97,84,60,30.01,29.82,8,1,12,0.20
2013-7-26,86.8,76.7,66.6,75.4,71.2,65.4,97,84,64,30.09,29.97,5,0,8,0.01
2013-7-27,82.7,75.3,70.6,75.6,71.9,69.1,96,90,73,30.01,29.87,5,1,7,1.13
2013-7-28,87.2,74.9,67.5,74.3,69.9,66.3,97,86,60,30.01,29.90,7,1,9,0.01
2013-7-29,87.8,75.4,65.9,72.3,68.7,64.7,97,81,52,30.14,30.00,4,0,7,0.00
2013-7-30,88.8,75.9,63.5,75.1,68.7,61.2,93,80,57,30.21,30.10,4,0,8,0.00
2013-7-31,82.2,74.4,69.5,74.8,70.8,67.8,96,89,73,30.15,29.95,6,0,8,0.03
2013-8-1,88.4,76.4,71.6,77.0,72.4,70.1,95,88,64,30.00,29.87,9,0,10,0.15
2013-8-2,90.5,77.9,67.9,76.2,71.3,66.7,97,82,56,30.02,29.92,4,0,7,0.00
2013-8-3,87.9,78.0,69.1,74.8,71.0,66.8,97,81,56,30.02,29.94,11,1,12,0.00
2013-8-4,91.8,78.4,69.2,76.8,70.7,64.9,94,78,53,30.02,29.92,4,1,6,0.00
2013-8-5,87.3,76.1,68.8,74.9,69.4,63.8,89,80,64,30.06,29.95,5,1,10,0.00
2013-8-6,84.6,75.6,70.6,77.2,72.3,69.1,96,90,74,30.04,29.94,7,1,10,3.99
2013-8-7,82.3,73.7,71.6,76.5,72.0,70.3,97,95,80,30.07,29.99,9,0,11,1.81
2013-8-8,83.7,75.5,71.6,77.5,72.9,70.4,97,92,78,30.08,30.00,3,0,5,0.21
2013-8-9,89.3,77.0,71.6,79.9,74.1,68.6,97,91,69,30.07,30.01,8,0,13,0.51
2013-8-10,90.6,78.0,72.0,80.5,74.5,70.8,97,89,68,30.11,30.03,17,1,21,0.38
2013-8-11,90.6,76.6,70.1,78.5,73.0,69.2,98,89,64,30.13,30.05,9,1,12,0.69
2013-8-12,91.8,78.8,71.3,79.1,73.7,70.0,96,86,60,30.09,29.95,8,1,16,0.00
2013-8-13,81.0,74.0,71.5,75.5,71.9,70.3,96,93,82,29.98,29.90,8,1,9,0.00
2013-8-14,81.2,72.4,69.0,72.1,67.7,64.0,95,85,68,30.05,29.86,4,0,7,0.00
2013-8-15,74.6,68.4,64.8,65.0,62.7,60.0,93,82,66,30.13,30.03,5,0,8,0.00
2013-8-16,76.2,66.0,61.2,67.9,62.1,59.2,95,88,73,30.15,30.07,4,0,5,0.21
2013-8-17,68.5,65.0,62.6,64.7,62.5,60.3,96,91,82,30.19,30.11,3,0,7,0.25
2013-8-18,76.5,68.8,64.5,70.8,66.8,63.3,97,94,81,30.24,30.14,3,0,6,0.28
2013-8-19,77.9,70.8,67.0,72.5,68.9,65.9,97,94,80,30.20,30.08,5,0,6,2.00
2013-8-20,81.2,72.8,68.1,73.3,69.9,66.8,97,91,75,30.19,30.10,4,0,5,0.03
2013-8-21,81.5,73.8,70.0,74.3,71.3,68.9,97,92,77,30.24,30.12,6,1,8,0.33
2013-8-22,87.8,75.8,68.8,75.9,71.6,67.9,98,88,61,30.17,30.03,7,1,10,0.00
2013-8-23,90.1,76.6,69.3,75.6,70.9,67.7,97,84,56,30.06,29.95,4,1,5,0.06
2013-8-24,83.3,72.2,64.1,70.9,66.2,62.0,96,83,59,30.28,30.05,4,0,9,0.00
2013-8-25,82.9,69.8,57.9,67.2,62.2,56.4,95,79,49,30.39,30.26,4,0,7,0.00
2013-8-26,85.8,71.5,59.2,69.4,63.9,57.7,96,79,54,30.33,30.13,6,0,7,0.00
2013-8-27,89.1,75.0,62.9,72.8,67.5,61.8,97,80,52,30.17,30.01,6,1,6,0.00
2013-8-28,91.5,78.0,67.2,74.8,70.1,65.7,96,78,54,30.04,29.93,7,1,9,0.00
2013-8-29,93.5,79.7,69.2,78.7,73.0,67.7,96,82,54,29.96,29.87,4,0,7,0.00
2013-8-30,84.8,76.3,72.4,76.3,72.9,71.1,96,90,70,30.04,29.93,4,0,5,0.42
2013-8-31,88.3,76.2,70.8,78.0,72.8,69.6,97,90,67,29.96,29.87,10,0,15,0.00
2013-9-1,89.0,76.7,69.5,78.8,73.0,68.3,97,89,66,29.92,29.80,9,1,20,0.01
2013-9-2,88.4,77.4,70.6,77.4,72.9,69.4,97,87,65,29.91,29.81,6,1,6,0.00
2013-9-3,89.0,75.4,65.7,76.3,70.4,64.2,97,85,61,29.97,29.84,9,1,17,0.29
2013-9-4,86.4,75.8,66.2,73.1,69.0,64.5,95,81,57,30.09,29.96,4,0,6,0.00
2013-9-5,88.3,76.3,66.1,74.4,69.5,64.9,96,81,52,30.12,30.03,5,0,8,0.00
2013-9-6,85.7,73.5,63.0,69.2,65.0,60.3,92,76,50,30.18,30.05,4,0,5,0.00
2013-9-7,86.1,72.8,62.8,70.4,65.8,61.0,95,80,56,30.14,29.99,5,0,8,0.00
2013-9-8,88.4,74.6,62.9,74.4,68.3,61.5,97,82,54,30.00,29.92,5,0,6,0.00
2013-9-9,88.6,73.9,66.0,73.8,68.9,64.4,96,86,60,30.12,29.99,4,0,8,0.00
2013-9-10,88.0,75.6,66.4,74.8,69.4,64.8,96,82,57,30.23,30.12,5,0,6,0.00
2013-9-11,90.8,76.5,64.9,73.2,68.5,63.4,97,79,46,30.22,30.08,5,0,5,0.00
2013-9-12,90.2,74.8,68.8,74.5,70.2,66.2,96,86,57,30.08,29.86,12,1,20,0.03
2013-9-13,86.7,74.0,62.2,70.9,63.7,56.0,96,73,38,29.88,29.77,8,1,12,0.00
2013-9-14,79.8,66.7,55.7,61.8,56.8,52.6,91,72,50,30.11,29.88,6,0,7,0.00
2013-9-15,81.6,69.6,60.6,68.4,63.0,57.8,93,81,62,30.21,30.10,5,0,7,0.00
2013-9-16,87.0,73.7,63.0,71.1,65.9,61.5,95,79,49,30.15,30.04,6,0,10,0.00
2013-9-17,72.9,68.7,65.0,64.4,60.6,57.7,82,76,65,30.29,30.13,4,0,6,0.00
2013-9-18,74.2,67.2,59.9,63.2,59.9,56.1,90,78,61,30.29,30.16,5,0,5,0.00
2013-9-19,84.3,72.9,59.3,68.6,64.7,57.9,96,77,55,30.19,30.08,3,0,8,0.00
2013-9-20,86.9,74.0,64.1,69.1,66.0,62.6,96,78,50,30.09,29.91,6,0,8,0.00
2013-9-21,72.7,68.6,65.3,70.2,66.7,63.5,97,94,88,29.93,29.64,6,0,7,1.20
2013-9-22,81.4,68.1,58.3,66.2,62.1,57.4,98,83,51,29.90,29.73,4,0,6,0.00
2013-9-23,79.4,67.2,61.2,64.0,59.9,56.6,92,78,55,30.06,29.90,5,0,6,0.00
2013-9-24,74.0,65.8,56.9,65.0,61.4,55.1,96,86,71,30.08,29.93,4,0,7,0.00
2013-9-25,66.1,63.8,62.0,63.8,62.2,60.8,96,95,91,29.94,29.86,4,0,6,1.41
2013-9-26,77.8,66.1,59.6,67.3,61.9,57.5,97,87,64,30.03,29.89,3,0,7,0.00
2013-9-27,79.0,64.8,53.3,64.7,58.2,51.9,96,81,57,30.18,30.03,3,0,6,0.01
2013-9-28,76.3,64.1,55.4,62.2,57.8,53.7,95,81,57,30.26,30.14,4,0,10,0.00
2013-9-29,75.3,62.7,53.2,61.8,57.2,51.4,95,83,59,30.20,30.04,4,0,6,0.00
2013-9-30,78.3,65.7,56.6,63.4,59.4,55.2,96,81,55,30.12,30.00,5,0,6,0.00
2013-10-1,82.1,66.4,55.1,63.9,59.0,54.0,97,80,45,30.18,30.06,4,0,6,0.00
2013-10-2,84.7,68.9,57.1,67.4,62.3,55.7,96,81,49,30.17,30.07,4,0,4,0.00
2013-10-3,65.2,62.2,58.9,63.7,60.9,57.8,97,96,94,30.12,30.09,1,0,1,0.00
2013-10-4,87.0,70.8,59.0,68.1,63.6,57.9,96,80,50,30.17,30.07,1,0,5,0.00
2013-10-5,87.4,71.7,59.4,69.3,64.2,58.0,96,80,50,30.14,30.02,1,0,5,0.00
2013-10-6,82.7,73.2,62.4,69.1,66.0,61.0,96,79,59,30.05,29.86,6,0,8,0.01
2013-10-7,76.4,68.1,58.5,69.9,64.7,54.3,97,89,76,29.98,29.81,9,0,12,1.54
2013-10-8,73.8,62.2,55.9,58.7,54.2,49.3,91,76,55,30.19,29.97,5,0,11,0.00
2013-10-9,75.5,60.9,49.1,54.8,50.2,46.1,92,70,42,30.24,30.12,6,0,11,0.00
2013-10-10,79.7,62.1,49.0,61.1,54.6,47.3,95,78,47,30.15,30.00,5,1,8,0.00
2013-10-11,83.5,66.5,55.1,62.7,57.8,53.1,94,76,46,30.04,29.93,6,1,7,0.00
2013-10-12,81.9,66.2,54.1,64.9,59.2,52.2,95,80,51,30.09,29.97,5,0,6,0.00
2013-10-13,76.4,67.9,63.4,66.7,63.8,61.3,95,87,70,30.21,30.09,3,0,4,0.01
2013-10-14,71.9,65.2,59.9,65.5,62.3,59.0,97,91,78,30.23,30.13,6,0,6,0.00
2013-10-15,69.9,62.1,56.5,62.0,58.7,55.1,96,89,73,30.20,30.06,3,0,7,0.00
2013-10-16,73.8,62.4,52.0,62.1,57.6,50.9,97,85,60,30.10,29.98,5,0,7,0.01
2013-10-17,66.7,64.1,61.7,65.5,62.5,59.9,96,94,90,29.98,29.88,3,0,6,0.44
2013-10-18,74.0,62.6,53.0,63.3,59.2,52.2,98,89,62,30.03,29.90,4,0,7,0.01
2013-10-19,62.5,59.4,53.7,59.3,57.3,52.2,97,93,83,29.97,29.88,5,0,9,0.03
2013-10-20,69.6,55.1,43.6,52.2,48.6,42.5,97,81,48,30.10,29.95,5,0,8,0.01
2013-10-21,69.7,55.8,44.8,58.7,51.8,43.2,96,87,65,30.18,30.03,4,0,6,0.00
2013-10-22,68.8,60.8,56.0,59.4,56.3,51.7,95,86,59,30.05,29.82,6,1,9,0.00
2013-10-23,63.3,53.7,40.1,54.1,42.7,31.2,94,70,35,30.07,29.77,15,3,22,0.00
2013-10-24,65.2,47.6,33.3,44.5,38.1,31.7,95,72,43,30.23,30.07,10,1,16,0.00
2013-10-25,58.5,44.4,34.5,41.5,33.9,27.1,94,69,33,30.40,30.20,7,1,7,0.00
2013-10-26,59.3,43.6,30.1,40.0,34.5,28.3,94,73,43,30.40,30.15,5,1,9,0.00
2013-10-27,72.8,54.2,38.4,55.3,46.4,36.5,94,76,53,30.18,30.07,6,1,7,0.00
2013-10-28,68.1,59.1,54.5,61.0,55.6,52.2,96,89,68,30.27,30.13,4,0,7,0.08
2013-10-29,75.8,59.2,45.9,58.2,53.0,44.8,98,82,50,30.37,30.25,7,0,7,0.01
2013-10-30,78.9,59.3,54.1,61.9,55.1,52.1,94,87,54,30.31,30.17,2,0,7,0.00
2013-10-31,70.8,64.5,56.3,63.6,59.6,54.5,95,84,71,30.18,29.89,3,0,6,0.00
2013-11-1,74.3,65.5,58.4,65.5,62.1,57.1,96,89,74,29.90,29.66,6,1,10,0.16
2013-11-2,68.7,56.9,47.0,57.1,46.4,38.3,96,71,35,30.03,29.75,15,2,21,0.00
2013-11-3,65.2,49.0,37.5,44.3,40.3,35.7,95,74,38,30.37,30.02,5,0,6,0.00
2013-11-4,61.4,48.2,41.1,41.3,38.0,35.4,89,69,42,30.54,30.38,7,0,9,0.00
2013-11-5,64.3,48.4,38.4,47.7,40.1,33.7,90,74,50,30.58,30.42,5,0,11,0.00
2013-11-6,71.5,58.6,52.2,57.3,52.6,47.5,91,81,59,30.43,30.13,4,0,7,0.00
2013-11-7,74.4,57.5,42.0,61.8,48.3,33.0,95,75,28,30.17,29.98,12,1,16,0.04
2013-11-8,61.6,45.0,31.6,36.3,31.7,26.9,94,64,31,30.36,30.17,5,0,8,0.00
2013-11-9,57.6,46.7,34.3,41.0,33.8,27.5,80,62,39,30.41,30.25,8,0,11,0.00
2013-11-10,75.9,55.6,41.6,44.6,38.7,34.9,89,57,25,30.28,30.15,5,0,8,0.00
2013-11-11,64.7,49.3,36.9,37.7,34.0,29.8,81,58,31,30.39,30.19,5,0,6,0.00
2013-11-12,67.3,47.0,28.0,42.8,34.6,15.5,91,64,38,30.48,30.09,13,2,16,0.00
2013-11-13,53.0,35.9,23.3,22.7,16.9,8.1,74,50,22,30.61,30.47,7,0,8,0.00
2013-11-14,61.1,39.4,24.3,28.7,22.8,19.1,86,56,22,30.55,30.37,5,0,9,0.00
2013-11-15,57.6,46.9,35.2,47.3,36.9,24.2,95,70,43,30.39,30.22,4,0,4,0.17
2013-11-16,62.2,55.0,48.7,57.3,52.7,47.3,96,92,82,30.30,30.20,3,0,5,0.00
2013-11-17,61.7,58.8,55.9,60.2,57.0,53.8,97,94,88,30.22,29.92,4,0,4,0.85
2013-11-18,75.0,61.6,46.8,60.9,49.6,33.4,98,71,25,30.00,29.87,11,2,19,0.00
2013-11-19,59.9,47.0,35.7,38.4,32.7,25.7,90,60,31,30.26,29.99,7,0,9,0.00
2013-11-20,55.8,45.2,36.5,35.5,32.7,30.3,80,62,40,30.45,30.25,4,1,9,0.00
2013-11-21,50.9,48.4,45.5,48.4,42.6,34.4,94,81,62,30.49,30.40,4,0,7,0.02
2013-11-22,61.9,55.8,50.1,58.0,54.0,48.4,96,94,86,30.42,30.14,3,0,5,0.03
2013-11-23,61.3,53.8,39.0,57.6,48.9,24.7,97,85,49,30.21,30.08,5,0,5,0.00
2013-11-24,46.4,35.3,28.2,27.8,17.9,8.1,78,51,25,30.56,30.21,6,1,8,0.00
2013-11-25,43.3,34.4,24.8,28.4,14.9,9.2,72,46,27,30.60,30.36,4,0,7,0.02
2013-11-26,46.9,40.0,33.0,46.1,38.6,28.7,97,95,75,30.36,29.67,3,0,9,2.91
2013-11-27,47.7,40.2,27.5,46.9,33.1,20.0,97,78,44,30.26,29.57,20,3,25,0.35
2013-11-28,49.6,32.9,21.6,27.9,23.7,19.0,92,71,38,30.53,30.26,5,0,5,0.00
2013-11-29,59.2,39.7,25.4,32.5,27.4,23.4,94,66,29,30.61,30.50,6,0,8,0.00
2013-11-30,51.2,38.8,30.2,30.2,27.3,25.2,83,65,39,30.66,30.41,5,0,6,0.00
2013-12-1,55.4,43.9,35.8,42.7,34.7,27.7,93,71,49,30.41,30.04,3,0,5,0.00
2013-12-2,58.4,46.4,34.4,48.4,41.8,32.9,96,85,58,30.04,29.85,4,0,6,0.00
2013-12-3,56.0,52.1,49.3,53.3,50.6,47.4,97,95,89,29.97,29.89,2,0,3,0.43
2013-12-4,60.7,57.8,53.6,60.1,57.0,52.8,98,97,96,30.09,30.00,3,0,4,0.09
2013-12-5,67.9,63.6,60.2,67.0,63.0,59.3,98,98,97,30.11,30.00,5,1,12,0.54
2013-12-6,73.7,68.2,64.5,67.6,65.6,62.8,97,92,79,30.06,29.95,11,1,15,0.20
2013-12-7,64.3,57.9,49.5,62.8,53.8,43.9,96,86,67,30.36,29.98,7,1,10,0.06
2013-12-8,49.4,41.3,37.1,44.9,39.7,36.1,96,94,82,30.40,30.28,4,0,6,0.29
2013-12-9,45.6,41.3,37.1,44.8,40.4,36.1,97,97,96,30.31,30.08,3,0,3,0.81
2013-12-10,58.9,47.5,31.6,53.2,40.2,18.9,98,79,29,30.35,29.95,15,2,21,0.21
2013-12-11,54.7,38.0,26.6,32.2,28.5,24.1,93,71,36,30.50,30.34,6,1,8,0.00
2013-12-12,52.8,38.1,28.7,29.5,24.5,16.7,85,60,34,30.46,30.34,3,0,6,0.00
2013-12-13,53.9,39.0,24.3,34.3,25.6,15.8,87,60,37,30.43,30.29,5,0,7,0.00
2013-12-14,46.6,43.2,39.8,45.5,38.6,30.5,97,85,63,30.30,29.84,7,0,10,1.31
2013-12-15,57.0,44.7,32.0,46.7,38.3,29.1,97,81,43,30.16,29.79,7,1,11,0.01
2013-12-16,61.6,42.0,28.6,37.6,30.9,27.0,95,69,30,30.24,30.14,9,1,12,0.00
2013-12-17,65.5,49.1,36.0,40.2,34.7,24.9,82,60,35,30.21,30.01,13,2,23,0.00
2013-12-18,57.2,43.4,33.6,25.8,21.3,12.9,64,43,18,30.33,30.10,11,1,16,0.00
2013-12-19,62.4,45.3,31.6,31.7,27.1,20.3,84,52,21,30.39,30.26,3,1,5,0.00
2013-12-20,58.0,48.5,37.8,47.4,39.8,30.2,84,72,58,30.28,30.18,4,0,5,0.00
2013-12-21,63.3,55.9,50.5,62.1,53.5,46.2,97,92,82,30.18,30.00,4,0,4,0.09
2013-12-22,68.2,62.3,58.7,65.6,61.2,58.1,98,96,91,30.07,29.97,9,1,13,1.88
2013-12-23,60.1,55.0,45.6,58.1,53.7,42.3,98,95,88,30.18,30.00,5,0,7,0.59
2013-12-24,50.1,39.8,27.3,43.0,30.5,18.3,96,72,29,30.45,30.17,14,1,16,0.00
2013-12-25,44.0,31.4,22.4,24.0,18.2,12.2,85,61,31,30.59,30.43,5,0,7,0.00
2013-12-26,57.2,38.4,26.7,32.7,26.3,18.4,85,64,35,30.45,30.29,5,0,5,0.00
2013-12-27,36.8,33.4,29.9,29.5,26.8,25.3,83,76,72,30.51,30.38,2,0,2,0.00
2013-12-28,47.9,38.4,28.2,39.6,32.7,25.6,95,81,57,30.46,30.15,1,0,3,0.43
2013-12-29,64.7,49.7,40.2,53.8,45.1,38.9,97,85,57,30.10,29.84,6,1,12,0.81
2013-12-30,53.9,45.2,37.8,44.6,40.6,36.5,96,85,64,30.17,29.99,5,0,6,0.00
2013-12-31,53.4,42.7,35.5,38.5,32.3,24.7,93,69,34,30.40,30.15,7,0,9,0.00
2014-1-1,50.3,42.5,31.4,37.1,33.6,28.2,91,72,52,30.42,30.18,3,0,5,0.00
2014-1-2,46.4,41.8,28.6,45.2,37.7,17.2,96,86,59,30.19,29.71,16,2,22,0.19